Showing default

COSMOS 1560, 14999

Orbit data source: Space-Track

COSMOS 1560, 14999 is a payload satellite owned by GUKOS (CIS) in LEO that was launched on Mon, 28 May 1984 UTC via a KOSMOS 11K65M launch vehicle from the Plesetsk Missile And Space Complex (PKMTR). Payload-class satellites include a variety of spacecraft equipped with specific instruments for various scientific and technological missions. These include communications satellites like Starlink; space stations such as the ISS; scientific satellites like the Hubble; Earth observation satellites from companies like Planet Labs, Umbra, and HawkEye 360; GPS; miniature CubeSats for education and research; and military/defense satellites.

Loading next visibility...
Identifier
14999, 1984-052B
Orbit
LEO
Country
Flag of CISCIS
Related business
Manufacturer
NPO PM
Mission
Spacecraft
Bus & Motor
STRELA-1 11F625, Unknown motor
Mass
60 kg wet, 60 kg dry
Launch date (UTC)
1984-05-28 (42 years ago)
Launch vehicle
KOSMOS 11K65M
Launch site
Plesetsk Missile And Space Complex (PKMTR)
Object type
Payload
Rocket body
Debris
Shape & HBR
Unknown
Radar Cross Section
Medium (>0.1 m² and <1 m²)

Expand to show TLE details & history
Last TLE update: 4 hours ago

TLE from 4 hours ago
0 COSMOS 1560
1 14999U 84052B   26127.14882953 -.00000024  00000-0 -54038-4 0  9991
2 14999  74.0098 156.2317 0012943  80.6313 336.4328 12.46117596907723
Epoch: 2026-05-07T03:34Z
TLE epoch observation values (Epoch: 2026-05-07T03:34:18.871Z)
Latitude
53.83148°
Longitude
-99.38753°
Altitude
1,479.886 km
Speed
7.133 km/s
True Right ascension
11h 56m 45s
True Declination
53° 40' 57"
Sunlit
Object was in daylight at epoch
Visualization orbit readout
Latitude
Unknown
Longitude
Unknown
Altitude
Unknown
Speed
Unknown
Apparent Right ascension
Unknown
Apparent Declination
Unknown
Sunlit
N/A
Visualization observer readout
Local Sidereal Time
15:56:45
Azimuth
Unknown
Elevation
Unknown
Doppler factor
Unknown
Orbital elements
Apogee altitude
1,488.786 km
Perigee altitude
1,468.448 km
Semi-major axis
7,856.754 km
Eccentricity
0.00129
Inclination
74.0098°
RAAN
156.2317°
Arg. of periapsis
80.6313°
True anomaly
336.37341°
Mean anomaly
336.4328°
Eccentric anomaly
336.40311°
Mean motion
3.11658 °/min
Orbital period
115.51 mins
BSTAR
-0.000054038
Loading maneuver chart data...
Computing Atmospheric mass density...
Loading historical data...
Loading historical data...
Loading historical data...
Loading historical data...
Loading historical data...
Loading historical data...
Loading historical data...

Documentation

Showing up to 5 results
|